Regional Weather Roundup
Issued by NWS

Home | Current Version | Previous Version | Text Only | Print | Product List | Glossary On
Versions: 1 2 3 4 5 6 7 8 9 10 11 12 13 14 15 16 17 18 19 20 21 22 23 24 25 26 27 28
000
ASUS45 KSLC 290410
RWRUT

UTAH REGIONAL WEATHER ROUNDUP
NATIONAL WEATHER SERVICE SALT LAKE CITY UT
1000 PM MDT WED JUN 28 2017

UTZ001>011-023>025-290500-

NORTHERN UTAH

CITY           SKY/WX    TMP DP  RH WIND       PRES   REMARKS
BRIGHAM CITY   CLEAR     72  44  36 CALM      29.89R
HILL AFB       CLEAR     74  39  28 NE3       29.91R
LOGAN          PTCLDY    63  54  72 N6        29.91R
OGDEN          CLEAR     72  41  32 CALM      29.88R
SALT LAKE CITY PTCLDY    76  46  34 N7        29.87R
TOOELE VALLEY  CLEAR     73  48  40 N9        29.90R
WENDOVER       CLEAR     80  25  13 NW10      29.89R
HEBER CITY     CLEAR     63  34  34 CALM      29.94R
WEST JORDAN    CLEAR     74  51  43 NW12      29.91R

$$

UTZ011>015-024>027-290500-

CENTRAL/NORTHEAST UTAH

CITY           SKY/WX    TMP DP  RH WIND       PRES   REMARKS
PROVO AIRPORT  CLEAR     77  43  29 MISG      29.87R
MOAB/CANYONLAN PTCLDY    85  15   7 NW12      29.76R
DELTA          CLEAR     77  21  12 N13       29.88R
PRICE          CLEAR     74  24  15 W8        29.92R
ROOSEVELT      CLEAR     75  30  19 W9        29.88R
VERNAL         CLEAR     73  29  19 N10       29.87R

$$

UTZ013>016-019>022-027-290500-

SOUTHERN UTAH

CITY           SKY/WX    TMP DP  RH WIND       PRES   REMARKS
BRYCE CANYON   MOCLDY    63  13  14 SW8       30.13R
CEDAR CITY     CLEAR     73  19  13 S9        29.97R
MILFORD        CLEAR     83  17   8 SW12G26   29.88R
ST GEORGE      CLEAR     91  18   7 SW8       29.75R
HANKSVILLE     CLEAR     86  16   7 W9        29.80R
BLANDING       CLEAR     80   9   7 W9        30.01R

$$

REGIONAL REPORTS     COLORADO/ARIZONA

CITY           SKY/WX    TMP DP  RH WIND       PRES   REMARKS
CRAIG, CO      CLOUDY    69  29  22 NW3       30.01R
GRAND JUNCTION CLOUDY    84  15   7 VRB5      29.77S
RIFLE, CO      PTCLDY    82  19   9 W12       29.88R
MONTROSE, CO   CLEAR     72  13  10 S10       29.92R
CORTEZ, CO     CLEAR     63  26  24 E8        29.96R
COLORADO CITY    N/A     77  18  10 SW3       29.96S
PAGE, AZ       CLEAR     90  11   5 W14G25    29.85R
GRAND CANYON   CLEAR     61  14  16 W6        30.12R
KINGMAN, AZ    CLEAR     77  17  10 S12       29.87R
FLAGSTAFF, AZ  CLEAR     69  18  14 SW12      30.17R

$$

REGIONAL REPORTS    NEVADA/IDAHO/WYOMING

CITY           SKY/WX    TMP DP  RH WIND       PRES   REMARKS
LAS VEGAS, NV  CLEAR     98  15   5 SW12      29.69R HX  91
ELY, NY        CLEAR     65  17  15 W6        30.05R
ELKO, NV       CLEAR     69  35  28 SW3       29.97R
POCATELLO, ID  CLEAR     65  39  38 SW15      29.90R
BURLEY, ID     CLEAR     62  40  44 SW7       29.90R
FORT BRIDGER,  CLEAR     59  34  38 NE6       30.11R
EVANSTON, WY   CLEAR     58  37  45 N7        30.07R
ROCK SPRINGS,  CLEAR     54  36  50 N5        30.07R
KEMMERER, WY     N/A     54  37  54 N7        30.09R

$$




USA.gov is the U.S. government's official web portal to all federal, state and local government web resources and services.